Time,TemperatureF,DewpointF,PressureIn,WindDirection,WindDirectionDegrees,WindSpeedMPH,WindSpeedGustMPH,Humidity,HourlyPrecipIn,Conditions,Clouds,dailyrainin,SoftwareType,DateUTC
2013-04-02 00:01:00,53.0,50.0,30.10,West,280,0.0,2.0,88,0.00,,,0.02,,2013-04-02 07:01:00,
2013-04-02 00:11:00,53.0,50.0,30.10,West,280,0.0,2.0,88,0.00,,,0.02,,2013-04-02 07:11:00,
2013-04-02 00:21:00,53.0,50.0,30.10,West,263,1.0,4.0,88,0.00,,,0.02,,2013-04-02 07:21:00,
2013-04-02 00:31:00,53.0,50.0,30.10,West,275,1.0,6.0,89,0.00,,,0.02,,2013-04-02 07:31:00,
2013-04-02 00:41:00,53.0,50.0,30.10,West,275,1.0,6.0,89,0.00,,,0.02,,2013-04-02 07:41:00,
2013-04-02 00:52:00,53.0,50.0,30.10,West,275,1.0,6.0,89,0.00,,,0.02,,2013-04-02 07:52:00,
2013-04-02 01:01:00,52.0,49.0,30.10,West,268,1.0,7.0,89,0.00,,,0.02,,2013-04-02 08:01:00,
2013-04-02 01:11:00,52.0,49.0,30.10,West,268,1.0,7.0,89,0.00,,,0.02,,2013-04-02 08:11:00,
2013-04-02 01:21:00,52.0,49.0,30.10,WNW,290,1.0,5.0,89,0.00,,,0.02,,2013-04-02 08:21:00,
2013-04-02 01:32:00,52.0,49.0,30.11,WNW,300,0.0,2.0,90,0.00,,,0.01,,2013-04-02 08:32:00,
2013-04-02 01:42:00,52.0,49.0,30.11,WNW,300,0.0,2.0,90,0.00,,,0.01,,2013-04-02 08:42:00,
2013-04-02 01:52:00,52.0,49.0,30.11,WNW,300,0.0,2.0,91,0.00,,,0.01,,2013-04-02 08:52:00,
2013-04-02 02:01:00,51.0,48.0,30.12,WNW,300,0.0,1.0,91,0.00,,,0.01,,2013-04-02 09:01:00,
2013-04-02 02:12:00,51.0,48.0,30.12,WNW,300,0.0,1.0,91,0.00,,,0.01,,2013-04-02 09:12:00,
2013-04-02 02:22:00,51.0,49.0,30.12,WNW,300,0.0,0.0,92,0.00,,,0.01,,2013-04-02 09:22:00,
2013-04-02 02:32:00,50.0,47.0,30.12,WNW,300,0.0,0.0,91,0.00,,,0.01,,2013-04-02 09:32:00,
2013-04-02 02:42:00,50.0,47.0,30.12,WNW,300,0.0,0.0,91,0.00,,,0.01,,2013-04-02 09:42:00,
2013-04-02 02:52:00,49.0,47.0,30.12,WNW,300,0.0,0.0,93,0.00,,,0.01,,2013-04-02 09:52:00,
2013-04-02 03:03:00,49.0,47.0,30.12,WNW,300,0.0,0.0,93,0.00,,,0.01,,2013-04-02 10:03:00,
2013-04-02 03:13:00,49.0,47.0,30.12,WNW,300,0.0,0.0,93,0.00,,,0.01,,2013-04-02 10:13:00,
2013-04-02 03:22:00,48.0,46.0,30.12,WNW,300,0.0,0.0,93,0.00,,,0.01,,2013-04-02 10:22:00,
2013-04-02 03:33:00,47.0,45.0,30.13,WNW,300,0.0,0.0,93,0.00,,,0.01,,2013-04-02 10:33:00,
2013-04-02 03:42:00,47.0,45.0,30.13,WNW,300,0.0,0.0,93,0.00,,,0.01,,2013-04-02 10:42:00,
2013-04-02 03:52:00,47.0,46.0,30.13,WNW,300,0.0,0.0,95,0.00,,,0.01,,2013-04-02 10:52:00,
2013-04-02 04:02:00,47.0,45.0,30.13,WNW,300,0.0,1.0,94,0.00,,,0.01,,2013-04-02 11:02:00,
2013-04-02 04:11:00,47.0,45.0,30.13,WNW,300,0.0,1.0,94,0.00,,,0.01,,2013-04-02 11:11:00,
2013-04-02 04:22:00,46.0,45.0,30.13,WNW,300,0.0,1.0,95,0.00,,,0.01,,2013-04-02 11:22:00,
2013-04-02 04:32:00,46.0,45.0,30.13,WNW,300,0.0,0.0,96,0.00,,,0.00,,2013-04-02 11:32:00,
2013-04-02 04:42:00,46.0,45.0,30.13,WNW,300,0.0,0.0,96,0.00,,,0.00,,2013-04-02 11:42:00,
2013-04-02 04:52:00,47.0,46.0,30.13,WNW,300,0.0,0.0,97,0.00,,,0.00,,2013-04-02 11:52:00,
2013-04-02 05:02:00,47.0,46.0,30.13,WNW,300,0.0,0.0,96,0.00,,,0.00,,2013-04-02 12:02:00,
2013-04-02 05:11:00,47.0,46.0,30.13,WNW,300,0.0,0.0,96,0.00,,,0.00,,2013-04-02 12:11:00,
2013-04-02 05:22:00,46.0,45.0,30.12,WNW,300,0.0,0.0,96,0.00,,,0.00,,2013-04-02 12:22:00,
2013-04-02 05:32:00,45.0,44.0,30.13,WNW,300,0.0,0.0,95,0.00,,,0.00,,2013-04-02 12:32:00,
2013-04-02 05:41:00,45.0,44.0,30.13,WNW,300,0.0,0.0,95,0.00,,,0.00,,2013-04-02 12:41:00,
2013-04-02 05:52:00,45.0,44.0,30.12,WNW,300,0.0,0.0,96,0.00,,,0.00,,2013-04-02 12:52:00,
2013-04-02 06:01:00,45.0,44.0,30.12,WNW,300,0.0,0.0,97,0.00,,,0.00,,2013-04-02 13:01:00,
2013-04-02 06:11:00,45.0,44.0,30.13,WNW,300,0.0,0.0,96,0.00,,,0.00,,2013-04-02 13:11:00,
2013-04-02 06:22:00,45.0,44.0,30.13,WNW,300,0.0,0.0,96,0.00,,,0.00,,2013-04-02 13:22:00,
2013-04-02 06:32:00,46.0,45.0,30.13,WNW,300,0.0,0.0,97,0.00,,,0.00,,2013-04-02 13:32:00,
2013-04-02 06:42:00,46.0,45.0,30.13,WNW,300,0.0,0.0,97,0.00,,,0.00,,2013-04-02 13:42:00,
2013-04-02 06:52:00,46.0,45.0,30.13,WNW,300,0.0,0.0,98,0.00,,,0.00,,2013-04-02 13:52:00,
2013-04-02 07:01:00,46.0,45.0,30.14,WNW,300,0.0,1.0,98,0.00,,,0.00,,2013-04-02 14:01:00,
2013-04-02 07:11:00,46.0,45.0,30.14,WNW,300,0.0,1.0,98,0.00,,,0.00,,2013-04-02 14:11:00,
2013-04-02 07:22:00,46.0,45.0,30.14,WNW,300,0.0,0.0,97,0.00,,,0.00,,2013-04-02 14:22:00,
2013-04-02 07:32:00,47.0,46.0,30.14,WNW,294,0.0,0.0,98,0.00,,,0.00,,2013-04-02 14:32:00,
2013-04-02 07:42:00,47.0,46.0,30.14,WNW,294,0.0,0.0,98,0.00,,,0.00,,2013-04-02 14:42:00,
2013-04-02 07:52:00,47.0,46.0,30.14,East,86,0.0,0.0,98,0.00,,,0.00,,2013-04-02 14:52:00,
2013-04-02 08:01:00,48.0,47.0,30.14,East,89,0.0,0.0,98,0.00,,,0.00,,2013-04-02 15:01:00,
2013-04-02 08:11:00,48.0,47.0,30.14,East,89,0.0,0.0,98,0.00,,,0.00,,2013-04-02 15:11:00,
2013-04-02 08:21:00,49.0,48.0,30.14,WSW,248,0.0,0.0,98,0.00,,,0.00,,2013-04-02 15:21:00,
2013-04-02 08:33:00,49.0,48.0,30.14,WSW,248,0.0,0.0,98,0.00,,,0.00,,2013-04-02 15:33:00,
2013-04-02 08:42:00,49.0,48.0,30.14,WSW,248,0.0,0.0,98,0.00,,,0.00,,2013-04-02 15:42:00,
2013-04-02 08:55:00,49.0,48.0,30.14,WSW,248,0.0,0.0,98,0.00,,,0.00,,2013-04-02 15:55:00,
2013-04-02 09:02:00,52.0,51.0,30.14,WNW,285,0.0,4.0,97,0.00,,,0.00,,2013-04-02 16:02:00,
2013-04-02 09:13:00,52.0,51.0,30.14,WNW,285,0.0,4.0,97,0.00,,,0.00,,2013-04-02 16:13:00,
2013-04-02 09:24:00,52.0,51.0,30.15,WNW,284,1.0,4.0,95,0.00,,,0.00,,2013-04-02 16:24:00,
2013-04-02 09:33:00,54.0,52.0,30.15,WNW,284,0.0,3.0,94,0.00,,,0.00,,2013-04-02 16:33:00,
2013-04-02 09:43:00,54.0,52.0,30.15,WNW,284,0.0,3.0,94,0.00,,,0.00,,2013-04-02 16:43:00,
2013-04-02 09:52:00,56.0,53.0,30.15,WNW,284,0.0,3.0,90,0.00,,,0.00,,2013-04-02 16:52:00,
2013-04-02 10:12:00,58.0,53.0,30.15,WNW,296,0.0,3.0,83,0.00,,,0.00,,2013-04-02 17:12:00,
2013-04-02 10:23:00,60.0,54.0,30.15,NNE,25,0.0,3.0,82,0.00,,,0.00,,2013-04-02 17:23:00,
2013-04-02 10:33:00,61.0,54.0,30.15,North,5,0.0,2.0,77,0.00,,,0.00,,2013-04-02 17:33:00,
2013-04-02 10:43:00,61.0,54.0,30.15,North,5,0.0,2.0,77,0.00,,,0.00,,2013-04-02 17:43:00,
2013-04-02 10:52:00,62.0,53.0,30.15,NNW,334,0.0,2.0,73,0.00,,,0.00,,2013-04-02 17:52:00,
2013-04-02 11:02:00,63.0,55.0,30.14,WSW,238,0.0,1.0,74,0.00,,,0.00,,2013-04-02 18:02:00,
2013-04-02 11:12:00,63.0,55.0,30.14,WSW,238,0.0,1.0,74,0.00,,,0.00,,2013-04-02 18:12:00,
2013-04-02 11:22:00,64.0,54.0,30.14,NNE,20,0.0,2.0,71,0.00,,,0.00,,2013-04-02 18:22:00,
2013-04-02 11:33:00,64.0,53.0,30.14,North,355,0.0,3.0,68,0.00,,,0.00,,2013-04-02 18:33:00,
2013-04-02 11:42:00,64.0,53.0,30.14,North,355,0.0,3.0,68,0.00,,,0.00,,2013-04-02 18:42:00,
2013-04-02 11:52:00,65.0,53.0,30.15,NNE,26,0.0,3.0,64,0.00,,,0.00,,2013-04-02 18:52:00,
2013-04-02 12:02:00,65.0,54.0,30.14,NNW,337,1.0,3.0,67,0.00,,,0.00,,2013-04-02 19:02:00,
2013-04-02 12:12:00,65.0,54.0,30.14,NNW,337,1.0,3.0,67,0.00,,,0.00,,2013-04-02 19:12:00,
2013-04-02 12:22:00,65.0,54.0,30.14,NNW,338,1.0,4.0,68,0.00,,,0.00,,2013-04-02 19:22:00,
2013-04-02 12:32:00,66.0,54.0,30.14,NNW,345,0.0,4.0,66,0.00,,,0.00,,2013-04-02 19:32:00,
2013-04-02 12:42:00,66.0,54.0,30.14,NNW,345,0.0,4.0,66,0.00,,,0.00,,2013-04-02 19:42:00,
2013-04-02 12:52:00,67.0,55.0,30.14,NW,306,0.0,3.0,65,0.00,,,0.00,,2013-04-02 19:52:00,
2013-04-02 13:02:00,68.0,54.0,30.13,NW,318,1.0,4.0,62,0.00,,,0.00,,2013-04-02 20:02:00,
2013-04-02 13:11:00,68.0,54.0,30.13,NW,318,1.0,4.0,62,0.00,,,0.00,,2013-04-02 20:11:00,
2013-04-02 13:21:00,68.0,53.0,30.12,NNW,346,2.0,6.0,58,0.00,,,0.00,,2013-04-02 20:21:00,
2013-04-02 13:32:00,68.0,53.0,30.12,NNW,346,2.0,6.0,58,0.00,,,0.00,,2013-04-02 20:32:00,
2013-04-02 13:42:00,68.0,53.0,30.12,NNW,346,2.0,6.0,58,0.00,,,0.00,,2013-04-02 20:42:00,
2013-04-02 13:52:00,68.0,53.0,30.12,NNW,346,2.0,6.0,58,0.00,,,0.00,,2013-04-02 20:52:00,
2013-04-02 14:03:00,71.0,54.0,30.11,NNW,338,0.0,3.0,56,0.00,,,0.00,,2013-04-02 21:03:00,
2013-04-02 14:12:00,71.0,54.0,30.11,NNW,338,0.0,3.0,56,0.00,,,0.00,,2013-04-02 21:12:00,
2013-04-02 14:22:00,71.0,54.0,30.10,North,9,0.0,4.0,55,0.00,,,0.00,,2013-04-02 21:22:00,
2013-04-02 14:32:00,72.0,55.0,30.09,North,355,0.0,6.0,55,0.00,,,0.00,,2013-04-02 21:32:00,
2013-04-02 14:42:00,72.0,55.0,30.09,North,355,0.0,6.0,55,0.00,,,0.00,,2013-04-02 21:42:00,
2013-04-02 14:53:00,72.0,54.0,30.09,NNE,30,0.0,3.0,53,0.00,,,0.00,,2013-04-02 21:53:00,
2013-04-02 15:03:00,72.0,53.0,30.09,North,11,1.0,5.0,51,0.00,,,0.00,,2013-04-02 22:03:00,
2013-04-02 15:12:00,72.0,53.0,30.09,North,11,1.0,5.0,51,0.00,,,0.00,,2013-04-02 22:12:00,
2013-04-02 15:22:00,73.0,55.0,30.08,NNW,328,0.0,3.0,54,0.00,,,0.00,,2013-04-02 22:22:00,
2013-04-02 15:33:00,74.0,53.0,30.07,ENE,58,0.0,4.0,48,0.00,,,0.00,,2013-04-02 22:33:00,
2013-04-02 15:42:00,74.0,53.0,30.07,ENE,58,0.0,4.0,48,0.00,,,0.00,,2013-04-02 22:42:00,
2013-04-02 15:52:00,75.0,53.0,30.07,North,5,0.0,2.0,46,0.00,,,0.00,,2013-04-02 22:52:00,
2013-04-02 16:02:00,74.0,54.0,30.07,NNW,338,0.0,6.0,49,0.00,,,0.00,,2013-04-02 23:02:00,
2013-04-02 16:12:00,74.0,54.0,30.07,NNW,338,0.0,6.0,49,0.00,,,0.00,,2013-04-02 23:12:00,
2013-04-02 16:22:00,74.0,54.0,30.07,NNW,338,0.0,6.0,49,0.00,,,0.00,,2013-04-02 23:22:00,
2013-04-02 16:33:00,74.0,53.0,30.06,NNW,341,1.0,4.0,48,0.00,,,0.00,,2013-04-02 23:33:00,
2013-04-02 16:42:00,74.0,53.0,30.06,NNW,341,1.0,4.0,48,0.00,,,0.00,,2013-04-02 23:42:00,
2013-04-02 16:53:00,74.0,54.0,30.06,NNE,15,2.0,4.0,49,0.00,,,0.00,,2013-04-02 23:53:00,
2013-04-02 17:02:00,73.0,53.0,30.06,WNW,300,2.0,5.0,50,0.00,,,0.00,,2013-04-03 00:02:00,
2013-04-02 17:12:00,73.0,53.0,30.06,WNW,300,2.0,5.0,50,0.00,,,0.00,,2013-04-03 00:12:00,
2013-04-02 17:22:00,73.0,53.0,30.05,West,273,0.0,6.0,50,0.00,,,0.00,,2013-04-03 00:22:00,
2013-04-02 17:32:00,73.0,53.0,30.05,NW,326,0.0,3.0,50,0.00,,,0.00,,2013-04-03 00:32:00,
2013-04-02 17:43:00,73.0,53.0,30.05,NW,326,0.0,3.0,50,0.00,,,0.00,,2013-04-03 00:43:00,
2013-04-02 17:54:00,73.0,53.0,30.04,WSW,253,0.0,3.0,50,0.00,,,0.00,,2013-04-03 00:54:00,
2013-04-02 18:02:00,73.0,53.0,30.04,NNW,337,0.0,4.0,49,0.00,,,0.00,,2013-04-03 01:02:00,
2013-04-02 18:11:00,73.0,53.0,30.04,NNW,337,0.0,4.0,49,0.00,,,0.00,,2013-04-03 01:11:00,
2013-04-02 18:21:00,73.0,52.0,30.04,WNW,303,0.0,2.0,48,0.00,,,0.00,,2013-04-03 01:21:00,
2013-04-02 18:32:00,73.0,53.0,30.04,West,270,0.0,1.0,49,0.00,,,0.00,,2013-04-03 01:32:00,
2013-04-02 18:42:00,73.0,53.0,30.04,West,270,0.0,1.0,49,0.00,,,0.00,,2013-04-03 01:42:00,
2013-04-02 18:53:00,71.0,55.0,30.04,NW,307,1.0,4.0,57,0.00,,,0.00,,2013-04-03 01:53:00,
2013-04-02 19:02:00,69.0,54.0,30.04,WSW,257,0.0,4.0,58,0.00,,,0.00,,2013-04-03 02:02:00,
2013-04-02 19:11:00,69.0,54.0,30.04,WSW,257,0.0,4.0,58,0.00,,,0.00,,2013-04-03 02:11:00,
2013-04-02 19:22:00,68.0,54.0,30.03,WNW,286,0.0,4.0,62,0.00,,,0.00,,2013-04-03 02:22:00,
2013-04-02 19:32:00,67.0,55.0,30.03,WNW,287,0.0,5.0,65,0.00,,,0.00,,2013-04-03 02:32:00,
2013-04-02 19:42:00,67.0,55.0,30.03,WNW,287,0.0,5.0,65,0.00,,,0.00,,2013-04-03 02:42:00,
2013-04-02 19:53:00,67.0,55.0,30.03,WNW,287,0.0,5.0,65,0.00,,,0.00,,2013-04-03 02:53:00,
2013-04-02 20:02:00,66.0,55.0,30.03,WSW,246,0.0,1.0,67,0.00,,,0.00,,2013-04-03 03:02:00,
2013-04-02 20:12:00,66.0,55.0,30.03,WSW,246,0.0,1.0,67,0.00,,,0.00,,2013-04-03 03:12:00,
2013-04-02 20:21:00,65.0,55.0,30.03,WSW,246,0.0,1.0,69,0.00,,,0.00,,2013-04-03 03:21:00,
2013-04-02 20:34:00,65.0,56.0,30.04,West,278,0.0,3.0,73,0.00,,,0.00,,2013-04-03 03:34:00,
2013-04-02 20:43:00,65.0,56.0,30.04,West,278,0.0,3.0,73,0.00,,,0.00,,2013-04-03 03:43:00,
2013-04-02 20:53:00,65.0,56.0,30.04,West,278,0.0,3.0,73,0.00,,,0.00,,2013-04-03 03:53:00,
2013-04-02 21:03:00,62.0,55.0,30.06,West,272,0.0,3.0,77,0.00,,,0.00,,2013-04-03 04:03:00,
2013-04-02 21:12:00,62.0,55.0,30.06,West,272,0.0,3.0,77,0.00,,,0.00,,2013-04-03 04:12:00,
2013-04-02 21:23:00,62.0,55.0,30.06,West,265,2.0,7.0,78,0.00,,,0.00,,2013-04-03 04:23:00,
2013-04-02 21:32:00,62.0,55.0,30.06,West,265,2.0,7.0,78,0.00,,,0.00,,2013-04-03 04:32:00,
2013-04-02 21:42:00,62.0,55.0,30.06,West,265,2.0,7.0,78,0.00,,,0.00,,2013-04-03 04:42:00,
2013-04-02 21:53:00,59.0,54.0,30.06,West,271,0.0,3.0,82,0.00,,,0.00,,2013-04-03 04:53:00,
2013-04-02 22:02:00,58.0,53.0,30.07,WSW,257,0.0,2.0,83,0.00,,,0.00,,2013-04-03 05:02:00,
2013-04-02 22:12:00,58.0,53.0,30.07,WSW,257,0.0,2.0,83,0.00,,,0.00,,2013-04-03 05:12:00,
2013-04-02 22:22:00,57.0,52.0,30.08,WSW,257,0.0,1.0,84,0.00,,,0.00,,2013-04-03 05:22:00,
2013-04-02 22:32:00,57.0,51.0,30.09,West,268,0.0,3.0,81,0.00,,,0.00,,2013-04-03 05:32:00,
2013-04-02 22:42:00,57.0,51.0,30.09,West,268,0.0,3.0,81,0.00,,,0.00,,2013-04-03 05:42:00,
2013-04-02 22:52:00,57.0,51.0,30.09,West,271,2.0,5.0,81,0.00,,,0.00,,2013-04-03 05:52:00,
2013-04-02 23:02:00,57.0,51.0,30.09,West,279,1.0,4.0,79,0.00,,,0.00,,2013-04-03 06:02:00,
2013-04-02 23:12:00,57.0,51.0,30.09,West,279,1.0,4.0,79,0.00,,,0.00,,2013-04-03 06:12:00,
2013-04-02 23:21:00,56.0,50.0,30.09,West,270,0.0,3.0,79,0.00,,,0.00,,2013-04-03 06:21:00,
2013-04-02 23:32:00,55.0,50.0,30.08,West,270,0.0,1.0,82,0.00,,,0.00,,2013-04-03 06:32:00,
2013-04-02 23:42:00,55.0,50.0,30.08,West,270,0.0,1.0,82,0.00,,,0.00,,2013-04-03 06:42:00,
2013-04-02 23:52:00,55.0,50.0,30.08,West,270,0.0,0.0,82,0.00,,,0.00,,2013-04-03 06:52:00,